GW5959 Weather Reports


time (UTC)temp
F
wind
direction
speed
knots
gust
knots
rain 1hr
in
rain 24hr
in
rain mn
in
humidity
%
barometer
mb
20260507112550 40 282 3.5 3.5 0.00 0.00 0.00 79 1013.3
20260507112047 40 261 3.5 5.2 0.00 0.00 0.00 80 1013.3
20260507111544 40 257 3.5 3.5 0.00 0.00 0.00 79 1013.3
20260507111041 40 267 2.6 3.5 0.00 0.00 0.00 79 1013.1
20260507110537 40 268 2.6 3.5 0.00 0.00 0.00 78 1013.3
20260507110033 40 257 2.6 5.2 0.00 0.00 0.00 78 1013.2
20260507105531 40 269 2.6 3.5 0.00 0.00 0.00 78 1013.0
20260507105026 40 265 3.5 3.5 0.00 0.00 0.00 77 1013.1
20260507104524 40 278 2.6 3.5 0.00 0.00 0.00 77 1013.1
20260507104020 40 275 3.5 3.5 0.00 0.00 0.00 78 1013.2
20260507103517 40 277 2.6 5.2 0.00 0.00 0.00 78 1013.1
20260507103013 40 267 3.5 3.5 0.00 0.00 0.00 79 1013.1
20260507102510 40 267 2.6 2.6 0.00 0.00 0.00 79 1013.2
20260507102007 39 266 1.7 2.6 0.00 0.00 0.00 80 1013.0
20260507101501 40 268 1.7 1.7 0.00 0.00 0.00 80 1013.1
20260507100958 40 249 2.6 2.6 0.00 0.00 0.00 80 1012.8
20260507100455 40 248 1.7 2.6 0.00 0.00 0.00 80 1012.8
20260507095954 40 258 1.7 1.7 0.00 0.00 0.00 80 1012.8
20260507095451 40 242 1.7 1.7 0.00 0.00 0.00 79 1012.8
20260507094948 40 263 0.9 1.7 0.00 0.00 0.00 79 1013.0
20260507094444 40 278 1.7 1.7 0.00 0.00 0.00 79 1013.0
20260507093941 40 276 1.7 1.7 0.00 0.00 0.00 79 1013.1
20260507093438 40 275 1.7 2.6 0.00 0.00 0.00 79 1013.0
20260507092937 41 274 1.7 3.5 0.00 0.00 0.00 78 1012.9
20260507092433 41 277 2.6 3.5 0.00 0.00 0.00 78 1012.8
20260507091930 41 272 1.7 3.5 0.00 0.00 0.00 78 1012.7
20260507091426 41 289 2.6 3.5 0.00 0.00 0.00 78 1012.7
20260507090922 41 279 2.6 3.5 0.00 0.00 0.00 78 1013.0
20260507090418 41 280 2.6 3.5 0.00 0.00 0.00 78 1012.9
20260507085915 41 271 1.7 2.6 0.00 0.00 0.00 77 1012.7
20260507085412 42 272 1.7 2.6 0.00 0.00 0.00 75 1012.8
20260507084909 42 283 3.5 5.2 0.00 0.00 0.00 75 1012.7
20260507084406 42 280 2.6 3.5 0.00 0.00 0.00 75 1012.9
20260507083903 42 279 3.5 3.5 0.00 0.00 0.00 74 1012.5
20260507083359 42 279 3.5 3.5 0.00 0.00 0.00 74 1012.7
20260507082855 42 282 2.6 3.5 0.00 0.00 0.00 75 1012.8
20260507082351 42 282 2.6 3.5 0.00 0.00 0.00 75 1012.8
20260507081849 43 274 2.6 2.6 0.00 0.00 0.00 75 1012.7
20260507081344 43 275 2.6 3.5 0.00 0.00 0.00 74 1012.8
20260507080842 43 282 3.5 3.5 0.00 0.00 0.00 74 1012.8
20260507080338 43 290 2.6 3.5 0.00 0.00 0.00 75 1012.9
20260507075833 43 279 2.6 3.5 0.00 0.00 0.00 75 1012.6
20260507075329 42 290 2.6 3.5 0.00 0.00 0.00 76 1012.8
20260507074826 42 281 1.7 2.6 0.00 0.00 0.00 76 1012.7
20260507074324 42 274 1.7 2.6 0.00 0.00 0.00 77 1012.8
20260507073821 43 271 1.7 2.6 0.00 0.00 0.00 77 1012.9
20260507073317 43 267 1.7 2.6 0.00 0.00 0.00 75 1012.7
20260507072815 43 268 1.7 2.6 0.00 0.00 0.00 75 1012.8
20260507072312 43 271 1.7 2.6 0.00 0.00 0.00 76 1012.8
20260507071809 43 279 2.6 2.6 0.00 0.00 0.00 77 1012.7
20260507071306 43 262 1.7 1.7 0.00 0.00 0.00 77 1012.7
20260507070802 42 269 1.7 2.6 0.00 0.00 0.00 78 1013.0
20260507070300 43 258 1.7 2.6 0.00 0.00 0.00 78 1012.9
20260507065756 43 263 2.6 2.6 0.00 0.00 0.00 78 1012.9
20260507065253 43 253 1.7 1.7 0.00 0.00 0.00 77 1012.8
20260507064750 44 258 1.7 1.7 0.00 0.00 0.00 76 1012.8
20260507064249 44 270 2.6 3.5 0.00 0.00 0.00 75 1012.8
20260507063746 44 251 2.6 2.6 0.00 0.00 0.00 75 1012.7
20260507063243 44 266 3.5 3.5 0.00 0.00 0.00 75 1012.9
20260507062739 44 271 2.6 5.2 0.00 0.00 0.00 76 1013.1
20260507062237 43 272 2.6 3.5 0.00 0.00 0.00 77 1013.1
20260507061735 44 275 2.6 2.6 0.00 0.00 0.00 78 1013.1
20260507061232 44 266 1.7 2.6 0.00 0.00 0.00 78 1013.0
20260507060731 44 261 1.7 2.6 0.00 0.00 0.00 78 1012.9
20260507060227 44 241 2.6 2.6 0.00 0.00 0.00 79 1012.8
20260507055723 44 257 1.7 2.6 0.00 0.00 0.00 79 1012.8
20260507055218 44 255 1.7 2.6 0.00 0.00 0.00 79 1013.0
20260507054715 44 257 1.7 2.6 0.00 0.00 0.00 79 1013.0
20260507054212 44 247 1.7 2.6 0.00 0.00 0.00 78 1012.9
20260507053710 44 246 2.6 2.6 0.00 0.00 0.00 78 1012.8
20260507053207 44 265 2.6 2.6 0.00 0.00 0.00 79 1012.9
20260507052706 44 267 1.7 2.6 0.00 0.00 0.00 79 1012.8
20260507052201 44 252 1.7 1.7 0.00 0.00 0.00 79 1013.0
20260507051659 44 248 1.7 1.7 0.00 0.00 0.00 79 1012.9
20260507051156 44 249 0.9 1.7 0.00 0.00 0.00 79 1012.8
20260507050653 45 249 0.9 0.9 0.00 0.00 0.00 78 1012.8
20260507050150 45 251 1.7 1.7 0.00 0.00 0.00 79 1013.0
20260507045646 45 252 0.9 2.6 0.00 0.00 0.00 79 1012.8
20260507045143 45 266 1.7 1.7 0.00 0.00 0.00 79 1012.9
20260507044640 45 263 0.9 2.6 0.00 0.00 0.00 78 1012.7
20260507044137 45 252 1.7 2.6 0.00 0.00 0.00 78 1012.7
20260507043633 46 252 1.7 2.6 0.00 0.00 0.00 77 1012.7
20260507043130 46 256 1.7 2.6 0.00 0.00 0.00 77 1012.5
20260507042626 46 244 2.6 2.6 0.00 0.00 0.00 77 1012.8
20260507042121 46 241 1.7 2.6 0.00 0.00 0.00 77 1012.9
20260507041618 46 246 2.6 2.6 0.00 0.00 0.00 77 1012.8
20260507041115 46 237 1.7 1.7 0.00 0.00 0.00 77 1013.0
20260507040612 46 251 1.7 2.6 0.00 0.00 0.00 77 1012.9
20260507040109 46 256 2.6 2.6 0.00 0.00 0.00 76 1013.0
20260507035604 47 250 2.6 2.6 0.00 0.12 0.12 76 1012.6
20260507035101 47 243 2.6 2.6 0.00 0.12 0.12 76 1012.7
20260507034558 47 238 1.7 2.6 0.00 0.12 0.12 76 1012.9
20260507034056 47 226 2.6 3.5 0.00 0.12 0.12 76 1012.7
20260507033554 47 212 2.6 2.6 0.00 0.12 0.12 76 1013.0
20260507033050 47 219 1.7 2.6 0.00 0.12 0.12 77 1012.6
20260507032547 46 219 1.7 2.6 0.00 0.12 0.12 78 1012.8
20260507032044 46 218 1.7 1.7 0.00 0.12 0.12 79 1012.9
20260507031540 46 208 1.7 2.6 0.00 0.12 0.12 79 1012.9
20260507031037 46 208 2.6 2.6 0.00 0.12 0.12 79 1013.0
20260507030533 46 204 2.6 2.6 0.00 0.12 0.12 80 1012.9
20260507030032 46 206 1.7 2.6 0.00 0.12 0.12 80 1012.8
20260507025529 46 203 1.7 2.6 0.00 0.12 0.12 79 1013.0
20260507025026 47 195 2.6 3.5 0.00 0.12 0.12 79 1013.1
20260507024524 47 201 3.5 3.5 0.00 0.12 0.12 78 1013.1
20260507024020 46 214 2.6 2.6 0.00 0.12 0.12 79 1013.0
20260507023516 45 205 1.7 2.6 0.00 0.12 0.12 82 1013.1
20260507023014 45 181 0.0 1.7 0.00 0.12 0.12 81 1013.1
20260507022510 45 191 2.6 3.5 0.00 0.12 0.12 81 1013.2
20260507022006 45 189 2.6 2.6 0.00 0.12 0.12 82 1013.0
20260507021502 45 190 2.6 2.6 0.00 0.12 0.12 84 1013.1
20260507020959 45 197 0.9 1.7 0.00 0.12 0.12 83 1013.0
20260507020456 45 200 0.9 1.7 0.00 0.12 0.12 82 1012.9
20260507015953 45 204 1.7 1.7 0.00 0.12 0.12 82 1012.9
20260507015451 45 149 0.9 1.7 0.00 0.12 0.12 81 1012.7
20260507014948 45 149 0.9 0.9 0.00 0.12 0.12 81 1012.8
20260507014445 46 149 0.0 0.9 0.00 0.12 0.12 80 1012.7
20260507013940 46 149 0.9 0.9 0.00 0.12 0.12 80 1012.9
20260507013437 46 149 0.0 0.9 0.00 0.12 0.12 80 1012.8
20260507012935 46 149 0.9 0.9 0.00 0.12 0.12 81 1012.5
20260507012431 47 148 0.9 0.9 0.00 0.12 0.12 78 1012.6
20260507011928 47 154 0.9 0.9 0.00 0.12 0.12 75 1012.5
20260507011426 47 156 0.9 0.9 0.00 0.12 0.12 74 1012.4
20260507010925 48 150 0.9 0.9 0.00 0.12 0.12 74 1012.7
20260507010421 48 169 0.9 0.9 0.00 0.12 0.12 72 1012.4
20260507005918 49 177 0.9 0.9 0.00 0.12 0.12 71 1012.3
20260507005415 49 259 0.0 0.0 0.00 0.12 0.12 69 1012.2
20260507004911 50 260 0.0 0.0 0.00 0.12 0.12 66 1012.4
20260507004408 51 261 0.0 0.0 0.00 0.12 0.12 62 1012.3
20260507003906 51 261 0.0 0.0 0.00 0.12 0.12 61 1012.2
20260507003401 52 261 0.0 0.0 0.00 0.12 0.12 61 1012.3
20260507002856 52 261 0.9 0.9 0.00 0.12 0.12 61 1012.3
20260507002352 52 268 0.9 0.9 0.00 0.12 0.12 60 1012.2
20260507001850 52 277 0.9 1.7 0.00 0.12 0.12 59 1012.0
20260507001347 53 278 1.7 1.7 0.00 0.12 0.12 59 1012.0
20260507000843 53 287 1.7 1.7 0.00 0.12 0.12 58 1012.2
20260507000339 54 286 2.6 3.5 0.00 0.12 0.12 57 1012.0
20260506235835 53 293 1.7 1.7 0.00 0.12 0.12 56 1012.2
20260506235332 53 280 1.7 2.6 0.00 0.12 0.12 58 1012.2
20260506234828 53 281 2.6 3.5 0.00 0.12 0.12 56 1012.2
20260506234326 53 320 3.5 5.2 0.00 0.12 0.12 57 1012.2
20260506233824 53 305 4.3 5.2 0.00 0.12 0.12 55 1012.1
20260506233319 54 248 3.5 3.5 0.00 0.12 0.12 54 1012.0
20260506232817 55 299 4.3 5.2 0.00 0.12 0.12 52 1012.2
20260506232312 55 307 3.5 5.2 0.00 0.12 0.12 53 1012.3
20260506231808 54 307 4.3 6.1 0.00 0.12 0.12 53 1012.2
20260506231307 54 303 4.3 5.2 0.00 0.12 0.12 54 1012.2
20260506230804 53 307 3.5 6.1 0.00 0.12 0.12 54 1012.3
20260506230300 53 295 3.5 5.2 0.00 0.12 0.12 56 1012.2
20260506225757 53 292 3.5 5.2 0.00 0.12 0.12 57 1012.2
20260506225254 53 293 5.2 6.1 0.00 0.12 0.12 54 1012.6
20260506224750 53 290 3.5 6.1 0.00 0.12 0.12 57 1012.4
20260506224248 53 301 5.2 7.0 0.00 0.12 0.12 55 1012.5
20260506223744 53 297 6.1 7.0 0.00 0.12 0.12 55 1012.6
20260506223239 53 323 5.2 7.0 0.00 0.12 0.12 56 1012.5
20260506222737 53 314 3.5 6.1 0.00 0.12 0.12 56 1012.5
20260506222232 53 309 5.2 7.8 0.00 0.12 0.12 54 1012.7
20260506221731 53 299 4.3 6.1 0.00 0.12 0.12 57 1012.6
20260506221228 53 312 4.3 6.1 0.00 0.12 0.12 57 1012.3
20260506220725 53 283 5.2 8.7 0.00 0.12 0.12 56 1012.5
20260506220220 53 276 7.0 7.8 0.00 0.12 0.12 56 1012.2
20260506215717 53 307 5.2 7.0 0.00 0.12 0.12 54 1012.2
20260506215212 53 302 6.1 7.0 0.00 0.12 0.12 53 1012.4
20260506214709 53 291 6.1 7.8 0.00 0.12 0.12 53 1012.4
20260506214207 53 283 5.2 6.1 0.00 0.12 0.12 54 1012.4
20260506213705 53 301 5.2 7.8 0.00 0.12 0.12 57 1012.4
20260506213202 53 310 5.2 7.0 0.00 0.12 0.12 55 1012.3
20260506212659 53 329 5.2 8.7 0.00 0.12 0.12 55 1012.1
20260506212154 53 294 7.0 9.6 0.00 0.12 0.12 53 1011.9
20260506211650 53 342 7.0 8.7 0.00 0.12 0.12 54 1012.0
20260506211146 53 302 5.2 7.0 0.00 0.12 0.12 54 1012.3
20260506210643 53 318 6.1 7.8 0.00 0.12 0.12 52 1012.0
20260506210140 53 278 6.1 8.7 0.00 0.12 0.12 52 1011.8
20260506205638 53 315 5.2 7.0 0.00 0.12 0.12 53 1011.9
20260506205132 53 307 5.2 7.0 0.00 0.12 0.12 53 1011.9
20260506204630 53 291 6.1 7.8 0.00 0.12 0.12 51 1012.0
20260506204127 53 304 5.2 7.8 0.00 0.12 0.12 52 1012.1
20260506203625 54 316 7.0 9.6 0.00 0.12 0.12 51 1012.1
20260506203121 53 301 6.1 7.0 0.00 0.12 0.12 53 1012.0
20260506202619 53 300 7.0 7.8 0.00 0.12 0.12 52 1012.1
20260506202115 54 291 7.8 8.7 0.00 0.12 0.12 51 1011.9
20260506201613 54 315 8.7 11.3 0.00 0.12 0.12 52 1012.1
20260506201109 54 325 7.0 8.7 0.00 0.12 0.12 50 1012.1
20260506200606 54 323 5.2 7.0 0.00 0.12 0.12 48 1012.1
20260506195559 54 324 9.6 12.2 0.00 0.12 0.12 49 1012.0
20260506195055 54 332 7.0 7.8 0.00 0.12 0.12 51 1012.1
20260506194553 54 326 8.7 9.6 0.00 0.12 0.12 49 1011.9
20260506194049 54 315 5.2 8.7 0.00 0.12 0.12 51 1012.2
20260506193547 54 332 7.8 11.3 0.00 0.12 0.12 55 1011.9
20260506193044 54 308 4.3 7.0 0.00 0.12 0.12 51 1012.1
20260506192541 54 309 9.6 11.3 0.00 0.12 0.12 52 1012.2
20260506192037 54 276 3.5 7.0 0.00 0.12 0.12 50 1012.1
20260506191534 54 320 8.7 9.6 0.00 0.12 0.12 52 1012.1
20260506191029 54 266 4.3 6.1 0.00 0.12 0.12 50 1011.9
20260506190527 54 320 3.5 7.8 0.00 0.12 0.12 51 1012.1
20260506190024 54 326 3.5 5.2 0.00 0.12 0.12 55 1012.1
20260506185521 54 324 7.8 7.8 0.00 0.12 0.12 51 1012.1
20260506185017 53 305 5.2 7.8 0.00 0.12 0.12 52 1011.9
20260506184515 53 299 5.2 6.1 0.00 0.12 0.12 53 1012.1
20260506184012 53 322 5.2 7.8 0.00 0.12 0.12 53 1012.1
20260506183507 53 329 6.1 7.8 0.00 0.12 0.12 53 1012.3
20260506183005 53 307 3.5 5.2 0.00 0.12 0.12 55 1012.2
20260506182501 53 304 6.1 7.0 0.00 0.12 0.12 53 1012.4
20260506181959 53 307 6.1 7.0 0.00 0.12 0.12 51 1012.0
20260506181457 53 319 4.3 5.2 0.00 0.12 0.12 53 1012.0
20260506180953 53 290 3.5 6.1 0.00 0.12 0.12 53 1011.8
20260506180450 53 313 5.2 6.1 0.00 0.12 0.12 55 1012.1
20260506175947 53 303 6.1 7.0 0.00 0.12 0.12 52 1012.0
20260506175443 53 334 5.2 8.7 0.00 0.12 0.12 53 1012.0
20260506174940 53 293 5.2 7.8 0.00 0.12 0.12 55 1012.0
20260506174438 53 316 4.3 7.8 0.00 0.12 0.12 53 1011.9
20260506173934 53 313 7.8 9.6 0.00 0.12 0.12 49 1012.3
20260506173432 54 312 7.0 9.6 0.00 0.12 0.12 50 1012.1
20260506172929 54 301 6.1 7.8 0.00 0.12 0.12 55 1012.1
20260506172426 54 330 5.2 6.1 0.00 0.12 0.12 55 1012.1
20260506171922 54 305 4.3 8.7 0.00 0.12 0.12 53 1012.0
20260506171420 54 316 5.2 12.2 0.00 0.12 0.12 52 1011.9
20260506170918 54 318 5.2 7.8 0.00 0.12 0.12 54 1011.8
20260506170414 54 340 4.3 7.8 0.00 0.12 0.12 58 1011.9
20260506165913 54 321 5.2 7.8 0.00 0.12 0.12 50 1011.9
20260506165411 54 346 3.5 6.1 0.00 0.12 0.12 54 1011.9
20260506164906 54 4 7.0 13.0 0.00 0.12 0.12 54 1012.2
20260506164403 54 353 5.2 11.3 0.00 0.12 0.12 52 1012.4
20260506163902 54 318 6.1 7.8 0.00 0.12 0.12 52 1012.1
20260506163355 54 313 6.1 13.0 0.00 0.12 0.12 51 1012.3
20260506162850 54 336 5.2 8.7 0.00 0.12 0.12 51 1012.0
20260506162349 53 339 7.8 8.7 0.00 0.12 0.12 55 1012.0
20260506161846 53 320 7.0 9.6 0.00 0.12 0.12 57 1011.7
20260506161343 53 345 7.8 8.7 0.00 0.12 0.12 57 1011.7
20260506160841 53 338 4.3 9.6 0.00 0.12 0.12 56 1011.7
20260506160337 54 2 6.1 13.0 0.00 0.12 0.12 56 1012.3
20260506155836 54 321 5.2 8.7 0.00 0.12 0.12 59 1011.8
20260506155332 53 308 3.5 7.0 0.00 0.12 0.12 64 1011.9
20260506153444 53 23 5.2 7.0 0.00 0.12 0.12 61 1011.9
20260506152942 53 306 6.1 9.6 0.00 0.12 0.12 62 1011.9
20260506152439 53 320 4.3 7.0 0.00 0.12 0.12 62 1011.9
20260506151937 53 326 8.7 12.2 0.00 0.12 0.12 64 1011.6
20260506151434 53 18 4.3 7.0 0.00 0.12 0.12 67 1011.5
20260506150932 52 330 7.8 11.3 0.00 0.12 0.12 66 1011.8
20260506150427 52 338 5.2 7.0 0.00 0.12 0.12 64 1011.4
20260506145925 52 332 7.0 12.2 0.00 0.12 0.12 66 1011.5
20260506145421 51 17 1.7 6.1 0.00 0.12 0.12 64 1011.4
20260506144919 51 16 5.2 7.8 0.00 0.12 0.12 66 1011.3
20260506144415 51 25 6.1 8.7 0.00 0.12 0.12 68 1011.0
20260506143914 51 332 6.1 7.0 0.00 0.12 0.12 69 1011.1
20260506143410 50 322 5.2 7.0 0.00 0.12 0.12 70 1011.3
20260506142908 50 331 5.2 7.8 0.00 0.12 0.12 70 1011.3
20260506142406 50 338 5.2 9.6 0.00 0.12 0.12 72 1011.1
20260506141904 50 10 8.7 11.3 0.00 0.12 0.12 71 1011.2
20260506141402 49 327 6.1 11.3 0.00 0.12 0.12 73 1011.1
20260506140900 50 335 7.8 8.7 0.00 0.12 0.12 73 1011.2
20260506140356 49 303 5.2 7.0 0.00 0.12 0.12 78 1011.3
20260506135853 49 318 7.8 8.7 0.00 0.12 0.12 74 1011.4
20260506135350 49 306 6.1 11.3 0.00 0.12 0.12 75 1011.1
20260506134846 49 333 7.8 8.7 0.00 0.12 0.12 76 1010.8
20260506134343 48 315 5.2 7.0 0.00 0.12 0.12 80 1010.8
20260506133840 48 324 7.8 11.3 0.00 0.12 0.12 80 1010.7
20260506133336 48 321 6.1 9.6 0.00 0.12 0.12 80 1010.8
20260506132833 47 305 5.2 8.7 0.00 0.12 0.12 81 1010.6
20260506132330 47 321 6.1 7.0 0.00 0.12 0.12 80 1010.8
20260506131828 47 321 5.2 7.8 0.00 0.12 0.12 82 1010.7
20260506131324 47 319 5.2 7.0 0.00 0.12 0.12 82 1010.6
20260506130822 47 298 7.0 7.8 0.00 0.12 0.12 81 1010.9
20260506130318 47 311 5.2 7.0 0.00 0.12 0.12 81 1010.7
20260506125816 46 318 3.5 7.0 0.00 0.12 0.12 84 1010.8
20260506125314 46 302 5.2 7.8 0.00 0.12 0.12 82 1010.6
20260506124813 46 316 7.8 8.7 0.00 0.12 0.12 82 1010.7
20260506124309 46 323 3.5 5.2 0.00 0.12 0.12 87 1010.6
20260506123807 45 333 5.2 7.0 0.00 0.12 0.12 87 1010.4
20260506123305 45 313 4.3 5.2 0.00 0.12 0.12 88 1010.3
20260506122801 45 289 4.3 5.2 0.00 0.12 0.12 90 1010.5
20260506122259 45 320 5.2 7.0 0.00 0.12 0.12 90 1010.2
20260506121757 45 318 5.2 6.1 0.00 0.12 0.12 90 1010.0
20260506121253 45 325 4.3 5.2 0.00 0.12 0.12 91 1010.0
20260506120751 44 334 3.5 5.2 0.00 0.12 0.12 91 1010.0
20260506120248 44 322 3.5 5.2 0.00 0.12 0.12 91 1009.8
20260506115746 44 330 4.3 7.0 0.00 0.12 0.12 91 1009.8
20260506115244 44 307 4.3 6.1 0.00 0.12 0.12 92 1010.1
20260506114741 44 323 3.5 3.5 0.00 0.12 0.12 93 1009.8
20260506114239 44 336 4.3 5.2 0.00 0.12 0.12 93 1009.7
20260506113737 43 336 4.3 5.2 0.00 0.12 0.12 93 1009.5
20260506113234 43 341 4.3 5.2 0.00 0.12 0.12 93 1009.2
20260506112730 43 338 3.5 5.2 0.00 0.12 0.12 94 1009.2